| time (UTC) | temp F | wind direction | speed MPH | gust MPH | rain 1hr in | rain 24hr in | rain mn in | humidity % | barometer mb |
| 20260510224035 | 65 | 57 | 1.0 | 2.0 | 0.00 | 0.00 | 0.00 | 95 | 1017.3 |
| 20260510223535 | 64 | 31 | 3.0 | 6.0 | 0.00 | 0.00 | 0.00 | 95 | 1016.7 |
| 20260510223035 | 65 | 98 | 2.0 | 5.0 | 0.00 | 0.00 | 0.00 | 95 | 1017.3 |
| 20260510222535 | 65 | 44 | 1.0 | 2.0 | 0.00 | 0.00 | 0.00 | 94 | 1018.3 |
| 20260510222035 | 65 | 18 | 4.0 | 8.0 | 0.00 | 0.00 | 0.00 | 93 | 1017.7 |
| 20260510221535 | 65 | 88 | 5.0 | 11.0 | 0.00 | 0.00 | 0.00 | 92 | 1017.0 |
| 20260510221035 | 65 | 62 | 4.0 | 8.0 | 0.00 | 0.00 | 0.00 | 92 | 1017.8 |
| 20260510220552 | 65 | 10 | 3.0 | 7.0 | 0.00 | 0.00 | 0.00 | 91 | 1017.2 |
| 20260510220116 | 65 | 69 | 2.0 | 7.0 | 0.00 | 0.00 | 0.00 | 90 | 1016.9 |
| 20260510215540 | 65 | 71 | 4.0 | 7.0 | 0.00 | 0.00 | 0.00 | 89 | 1016.9 |
| 20260510215034 | 66 | 56 | 5.0 | 11.0 | 0.00 | 0.00 | 0.00 | 90 | 1017.2 |
| 20260510214535 | 66 | 72 | 4.0 | 8.0 | 0.00 | 0.00 | 0.00 | 89 | 1017.0 |
| 20260510214055 | 66 | 55 | 5.0 | 14.0 | 0.00 | 0.00 | 0.00 | 89 | 1017.5 |
| 20260510213555 | 66 | 76 | 8.0 | 15.0 | 0.00 | 0.00 | 0.00 | 89 | 1017.7 |
| 20260510213035 | 66 | 57 | 5.0 | 13.0 | 0.00 | 0.00 | 0.00 | 89 | 1017.8 |
| 20260510212535 | 66 | 49 | 6.0 | 14.0 | 0.00 | 0.00 | 0.00 | 89 | 1018.0 |
| 20260510212035 | 66 | 82 | 4.0 | 16.0 | 0.00 | 0.00 | 0.00 | 89 | 1018.0 |
| 20260510211535 | 66 | 31 | 5.0 | 9.0 | 0.00 | 0.00 | 0.00 | 89 | 1018.3 |
| 20260510211034 | 66 | 48 | 4.0 | 8.0 | 0.00 | 0.00 | 0.00 | 90 | 1018.6 |
| 20260510210619 | 67 | 43 | 4.0 | 7.0 | 0.00 | 0.00 | 0.00 | 90 | 1018.8 |
| 20260510210120 | 67 | 24 | 4.0 | 7.0 | 0.00 | 0.00 | 0.00 | 89 | 1018.7 |
| 20260510205535 | 67 | 42 | 4.0 | 7.0 | 0.00 | 0.00 | 0.00 | 89 | 1018.3 |
| 20260510205034 | 67 | 48 | 3.0 | 7.0 | 0.00 | 0.00 | 0.00 | 89 | 1018.5 |
| 20260510204556 | 67 | 41 | 4.0 | 9.0 | 0.00 | 0.00 | 0.00 | 89 | 1018.5 |
| 20260510204034 | 67 | 5 | 5.0 | 13.0 | 0.00 | 0.00 | 0.00 | 88 | 1018.3 |
| 20260510203535 | 67 | 41 | 5.0 | 9.0 | 0.00 | 0.00 | 0.00 | 87 | 1018.5 |
| 20260510203035 | 67 | 45 | 5.0 | 9.0 | 0.00 | 0.00 | 0.00 | 87 | 1018.4 |
| 20260510202535 | 67 | 33 | 5.0 | 7.0 | 0.00 | 0.00 | 0.00 | 88 | 1018.5 |
| 20260510202034 | 68 | 27 | 4.0 | 7.0 | 0.00 | 0.00 | 0.00 | 87 | 1018.5 |
| 20260510201524 | 68 | 50 | 4.0 | 11.0 | 0.00 | 0.00 | 0.00 | 85 | 1018.8 |
| 20260510201108 | 68 | 31 | 3.0 | 6.0 | 0.00 | 0.00 | 0.00 | 84 | 1018.7 |
| 20260510200608 | 68 | 33 | 5.0 | 10.0 | 0.00 | 0.00 | 0.00 | 85 | 1018.5 |
| 20260510200035 | 68 | 55 | 5.0 | 13.0 | 0.00 | 0.00 | 0.00 | 85 | 1018.4 |
| 20260510195615 | 69 | 49 | 3.0 | 6.0 | 0.00 | 0.00 | 0.00 | 85 | 1018.3 |
| 20260510195055 | 69 | 56 | 3.0 | 13.0 | 0.00 | 0.00 | 0.00 | 83 | 1018.3 |
| 20260510194614 | 69 | 46 | 3.0 | 6.0 | 0.00 | 0.00 | 0.00 | 83 | 1018.4 |
| 20260510194136 | 70 | 52 | 3.0 | 5.0 | 0.00 | 0.00 | 0.00 | 82 | 1018.4 |
| 20260510193556 | 70 | 61 | 3.0 | 6.0 | 0.00 | 0.00 | 0.00 | 82 | 1018.4 |
| 20260510193034 | 70 | 59 | 2.0 | 5.0 | 0.00 | 0.00 | 0.00 | 82 | 1018.3 |
| 20260510192535 | 70 | 78 | 3.0 | 8.0 | 0.00 | 0.00 | 0.00 | 82 | 1018.2 |
| 20260510192055 | 70 | 59 | 2.0 | 7.0 | 0.00 | 0.00 | 0.00 | 83 | 1018.1 |
| 20260510191535 | 70 | 58 | 2.0 | 3.0 | 0.00 | 0.00 | 0.00 | 83 | 1017.8 |
| 20260510191021 | 70 | 76 | 2.0 | 6.0 | 0.00 | 0.00 | 0.00 | 84 | 1017.8 |
| 20260510190604 | 69 | 66 | 3.0 | 7.0 | 0.00 | 0.00 | 0.00 | 85 | 1017.8 |
| 20260510190035 | 69 | 62 | 3.0 | 7.0 | 0.00 | 0.00 | 0.00 | 85 | 1017.5 |
| 20260510185535 | 69 | 81 | 3.0 | 5.0 | 0.00 | 0.00 | 0.00 | 86 | 1017.3 |
| 20260510185055 | 69 | 68 | 3.0 | 7.0 | 0.00 | 0.00 | 0.00 | 86 | 1017.3 |
| 20260510184554 | 69 | 58 | 4.0 | 8.0 | 0.00 | 0.00 | 0.00 | 85 | 1017.4 |
| 20260510184156 | 69 | 49 | 4.0 | 7.0 | 0.00 | 0.00 | 0.00 | 85 | 1017.4 |
| 20260510183556 | 69 | 59 | 2.0 | 6.0 | 0.00 | 0.00 | 0.00 | 86 | 1017.2 |
| 20260510183036 | 68 | 63 | 2.0 | 7.0 | 0.00 | 0.00 | 0.00 | 87 | 1017.4 |
| 20260510182535 | 68 | 68 | 3.0 | 6.0 | 0.00 | 0.00 | 0.00 | 87 | 1017.3 |
| 20260510182055 | 68 | 57 | 4.0 | 8.0 | 0.00 | 0.00 | 0.00 | 87 | 1017.1 |
| 20260510181535 | 68 | 45 | 3.0 | 8.0 | 0.00 | 0.00 | 0.00 | 87 | 1017.1 |
| 20260510181034 | 68 | 66 | 3.0 | 6.0 | 0.00 | 0.00 | 0.00 | 87 | 1017.1 |
| 20260510180620 | 67 | 48 | 3.0 | 9.0 | 0.00 | 0.00 | 0.00 | 88 | 1017.0 |
| 20260510180044 | 67 | 70 | 3.0 | 6.0 | 0.00 | 0.00 | 0.00 | 89 | 1017.1 |
| 20260510175535 | 66 | 47 | 4.0 | 7.0 | 0.00 | 0.00 | 0.00 | 90 | 1017.1 |
| 20260510175034 | 66 | 70 | 2.0 | 7.0 | 0.00 | 0.00 | 0.00 | 91 | 1017.2 |
| 20260510174535 | 66 | 53 | 3.0 | 7.0 | 0.00 | 0.00 | 0.00 | 90 | 1017.2 |
| 20260510174034 | 66 | 58 | 4.0 | 9.0 | 0.00 | 0.00 | 0.00 | 90 | 1017.1 |
| 20260510173535 | 66 | 63 | 5.0 | 13.0 | 0.00 | 0.00 | 0.00 | 90 | 1017.3 |
| 20260510173053 | 66 | 60 | 4.0 | 9.0 | 0.00 | 0.00 | 0.00 | 90 | 1017.1 |
| 20260510172535 | 66 | 58 | 5.0 | 10.0 | 0.00 | 0.00 | 0.00 | 90 | 1017.1 |
| 20260510172055 | 66 | 68 | 5.0 | 11.0 | 0.00 | 0.00 | 0.00 | 88 | 1017.0 |
| 20260510171555 | 66 | 55 | 5.0 | 9.0 | 0.00 | 0.00 | 0.00 | 87 | 1016.8 |
| 20260510171035 | 66 | 57 | 5.0 | 15.0 | 0.00 | 0.00 | 0.00 | 87 | 1017.0 |
| 20260510170535 | 66 | 58 | 3.0 | 7.0 | 0.00 | 0.00 | 0.00 | 86 | 1017.1 |
| 20260510170035 | 66 | 56 | 3.0 | 7.0 | 0.00 | 0.00 | 0.00 | 85 | 1017.3 |
| 20260510165555 | 66 | 17 | 4.0 | 9.0 | 0.00 | 0.00 | 0.00 | 84 | 1017.3 |
| 20260510165034 | 66 | 50 | 6.0 | 11.0 | 0.00 | 0.00 | 0.00 | 84 | 1017.2 |
| 20260510164535 | 66 | 56 | 4.0 | 8.0 | 0.00 | 0.00 | 0.00 | 84 | 1017.3 |
| 20260510164035 | 66 | 64 | 5.0 | 8.0 | 0.00 | 0.00 | 0.00 | 84 | 1017.4 |
| 20260510163525 | 67 | 27 | 7.0 | 16.0 | 0.00 | 0.00 | 0.00 | 82 | 1017.4 |
| 20260510163108 | 68 | 22 | 5.0 | 10.0 | 0.00 | 0.00 | 0.00 | 79 | 1017.3 |
| 20260510162555 | 71 | 26 | 5.0 | 7.0 | 0.00 | 0.00 | 0.00 | 75 | 1017.2 |
| 20260510162035 | 77 | 20 | 4.0 | 10.0 | 0.00 | 0.00 | 0.00 | 71 | 1016.9 |
| 20260510161535 | 79 | 53 | 0.0 | 2.0 | 0.00 | 0.00 | 0.00 | 68 | 1016.3 |
| 20260510161035 | 79 | 0.0 | 0.0 | 0.00 | 0.00 | 0.00 | 67 | 1016.0 | |
| 20260510160535 | 78 | 159 | 1.0 | 3.0 | 0.00 | 0.00 | 0.00 | 69 | 1015.5 |
| 20260510160035 | 79 | 130 | 1.0 | 3.0 | 0.00 | 0.00 | 0.00 | 69 | 1015.2 |
| 20260510155535 | 80 | 123 | 1.0 | 2.0 | 0.00 | 0.00 | 0.00 | 67 | 1014.9 |
| 20260510155034 | 79 | 116 | 1.0 | 2.0 | 0.00 | 0.00 | 0.00 | 66 | 1014.8 |
| 20260510154641 | 79 | 119 | 1.0 | 2.0 | 0.00 | 0.00 | 0.00 | 67 | 1014.7 |
| 20260510154100 | 79 | 143 | 1.0 | 2.0 | 0.00 | 0.00 | 0.00 | 67 | 1014.5 |
| 20260510153540 | 78 | 137 | 2.0 | 2.0 | 0.00 | 0.00 | 0.00 | 67 | 1014.6 |
| 20260510153022 | 78 | 141 | 1.0 | 2.0 | 0.00 | 0.00 | 0.00 | 66 | 1014.5 |
| 20260510152604 | 77 | 131 | 1.0 | 2.0 | 0.00 | 0.00 | 0.00 | 67 | 1014.3 |
| 20260510152044 | 77 | 144 | 2.0 | 5.0 | 0.00 | 0.00 | 0.00 | 67 | 1014.2 |
| 20260510151535 | 77 | 161 | 2.0 | 5.0 | 0.00 | 0.00 | 0.00 | 67 | 1014.2 |
| 20260510151034 | 76 | 144 | 1.0 | 3.0 | 0.00 | 0.00 | 0.00 | 68 | 1014.1 |
| 20260510150554 | 76 | 170 | 2.0 | 5.0 | 0.00 | 0.00 | 0.00 | 69 | 1014.1 |
| 20260510150035 | 77 | 133 | 2.0 | 3.0 | 0.00 | 0.00 | 0.00 | 69 | 1014.0 |
| 20260510145525 | 76 | 137 | 1.0 | 2.0 | 0.00 | 0.00 | 0.00 | 70 | 1014.1 |
| 20260510145108 | 75 | 139 | 1.0 | 5.0 | 0.00 | 0.00 | 0.00 | 70 | 1014.2 |
| 20260510144549 | 75 | 187 | 2.0 | 5.0 | 0.00 | 0.00 | 0.00 | 69 | 1014.4 |
| 20260510144034 | 75 | 151 | 2.0 | 2.0 | 0.00 | 0.00 | 0.00 | 70 | 1014.6 |
| 20260510143534 | 75 | 110 | 2.0 | 5.0 | 0.00 | 0.00 | 0.00 | 70 | 1014.7 |
| 20260510143035 | 74 | 121 | 2.0 | 5.0 | 0.00 | 0.00 | 0.00 | 71 | 1014.7 |
| 20260510142534 | 73 | 134 | 2.0 | 3.0 | 0.00 | 0.00 | 0.00 | 72 | 1014.6 |
| 20260510142035 | 72 | 126 | 2.0 | 6.0 | 0.00 | 0.00 | 0.00 | 74 | 1014.6 |
| 20260510141535 | 72 | 138 | 2.0 | 3.0 | 0.00 | 0.00 | 0.00 | 75 | 1014.7 |
| 20260510141021 | 71 | 91 | 1.0 | 2.0 | 0.00 | 0.00 | 0.00 | 76 | 1014.9 |
| 20260510140548 | 71 | 145 | 1.0 | 3.0 | 0.00 | 0.00 | 0.00 | 76 | 1014.9 |
| 20260510140150 | 71 | 149 | 2.0 | 5.0 | 0.00 | 0.00 | 0.00 | 75 | 1014.9 |
| 20260510135556 | 71 | 116 | 2.0 | 3.0 | 0.00 | 0.00 | 0.00 | 76 | 1015.0 |
| 20260510135035 | 71 | 116 | 1.0 | 2.0 | 0.00 | 0.00 | 0.00 | 77 | 1015.0 |
| 20260510134535 | 70 | 120 | 1.0 | 2.0 | 0.00 | 0.00 | 0.00 | 78 | 1015.1 |
| 20260510134034 | 70 | 151 | 1.0 | 2.0 | 0.00 | 0.00 | 0.00 | 78 | 1015.2 |
| 20260510133534 | 70 | 102 | 0.0 | 1.0 | 0.00 | 0.00 | 0.00 | 79 | 1015.2 |
| 20260510133035 | 70 | 113 | 1.0 | 3.0 | 0.00 | 0.00 | 0.00 | 79 | 1015.1 |
| 20260510132533 | 69 | 101 | 1.0 | 2.0 | 0.00 | 0.00 | 0.00 | 79 | 1015.2 |
| 20260510132100 | 69 | 107 | 1.0 | 2.0 | 0.00 | 0.00 | 0.00 | 80 | 1015.2 |
| 20260510131601 | 69 | 91 | 1.0 | 2.0 | 0.00 | 0.00 | 0.00 | 81 | 1015.2 |
| 20260510131034 | 69 | 95 | 0.0 | 2.0 | 0.00 | 0.00 | 0.00 | 81 | 1015.2 |
| 20260510130535 | 69 | 86 | 1.0 | 2.0 | 0.00 | 0.00 | 0.00 | 82 | 1015.0 |
| 20260510130029 | 69 | 105 | 1.0 | 2.0 | 0.00 | 0.00 | 0.00 | 82 | 1015.1 |
| 20260510125612 | 68 | 111 | 0.0 | 1.0 | 0.00 | 0.00 | 0.00 | 82 | 1015.0 |
| 20260510125052 | 68 | 120 | 1.0 | 1.0 | 0.00 | 0.00 | 0.00 | 83 | 1014.8 |
| 20260510124535 | 68 | 117 | 1.0 | 1.0 | 0.00 | 0.00 | 0.00 | 83 | 1014.7 |
| 20260510124055 | 68 | 109 | 1.0 | 1.0 | 0.00 | 0.00 | 0.00 | 83 | 1014.7 |
| 20260510123534 | 68 | 94 | 0.0 | 1.0 | 0.00 | 0.00 | 0.00 | 82 | 1014.7 |
| 20260510123035 | 68 | 138 | 0.0 | 1.0 | 0.00 | 0.00 | 0.00 | 83 | 1014.4 |
| 20260510122535 | 68 | 136 | 1.0 | 2.0 | 0.00 | 0.00 | 0.00 | 82 | 1014.2 |
| 20260510122133 | 68 | 78 | 1.0 | 5.0 | 0.00 | 0.00 | 0.00 | 83 | 1014.1 |
| 20260510121557 | 68 | 100 | 0.0 | 1.0 | 0.00 | 0.00 | 0.00 | 82 | 1014.1 |
| 20260510121055 | 68 | 98 | 1.0 | 3.0 | 0.00 | 0.00 | 0.00 | 82 | 1014.1 |
| 20260510120620 | 68 | 113 | 1.0 | 3.0 | 0.00 | 0.00 | 0.00 | 82 | 1014.1 |
| 20260510120055 | 68 | 157 | 1.0 | 2.0 | 0.00 | 0.00 | 0.00 | 83 | 1014.1 |
| 20260510115536 | 68 | 99 | 1.0 | 2.0 | 0.00 | 0.00 | 0.00 | 83 | 1014.1 |
| 20260510115034 | 68 | 142 | 2.0 | 6.0 | 0.00 | 0.00 | 0.00 | 83 | 1014.1 |
| 20260510114620 | 68 | 82 | 1.0 | 5.0 | 0.00 | 0.00 | 0.00 | 82 | 1013.9 |
| 20260510114035 | 68 | 77 | 1.0 | 6.0 | 0.00 | 0.00 | 0.00 | 81 | 1014.0 |
| 20260510113535 | 68 | 92 | 3.0 | 8.0 | 0.00 | 0.00 | 0.00 | 81 | 1014.0 |
| 20260510113035 | 68 | 55 | 2.0 | 3.0 | 0.00 | 0.00 | 0.00 | 81 | 1013.8 |
| 20260510112604 | 68 | 85 | 2.0 | 5.0 | 0.00 | 0.00 | 0.00 | 80 | 1013.6 |
| 20260510112035 | 68 | 116 | 3.0 | 7.0 | 0.00 | 0.00 | 0.00 | 80 | 1013.6 |
| 20260510111535 | 68 | 99 | 2.0 | 5.0 | 0.00 | 0.00 | 0.00 | 80 | 1013.5 |
| 20260510111124 | 68 | 60 | 2.0 | 7.0 | 0.00 | 0.00 | 0.00 | 80 | 1013.7 |
| 20260510110549 | 67 | 64 | 2.0 | 6.0 | 0.00 | 0.00 | 0.00 | 81 | 1013.5 |
| 20260510110035 | 67 | 81 | 3.0 | 7.0 | 0.00 | 0.00 | 0.00 | 81 | 1013.5 |
| 20260510105535 | 67 | 89 | 2.0 | 8.0 | 0.00 | 0.00 | 0.00 | 82 | 1013.6 |
| 20260510105034 | 67 | 86 | 3.0 | 9.0 | 0.00 | 0.00 | 0.00 | 83 | 1013.5 |
| 20260510104534 | 67 | 54 | 2.0 | 8.0 | 0.00 | 0.00 | 0.00 | 84 | 1013.4 |
| 20260510104055 | 67 | 93 | 2.0 | 6.0 | 0.00 | 0.00 | 0.00 | 85 | 1013.4 |
| 20260510103534 | 67 | 84 | 4.0 | 9.0 | 0.00 | 0.00 | 0.00 | 85 | 1013.4 |
| 20260510103055 | 67 | 38 | 3.0 | 7.0 | 0.00 | 0.00 | 0.00 | 85 | 1013.4 |
| 20260510102535 | 67 | 77 | 3.0 | 9.0 | 0.00 | 0.00 | 0.00 | 85 | 1013.4 |
| 20260510102055 | 67 | 49 | 6.0 | 10.0 | 0.00 | 0.00 | 0.00 | 84 | 1013.4 |
| 20260510101535 | 68 | 47 | 7.0 | 17.0 | 0.00 | 0.00 | 0.00 | 84 | 1013.5 |
| 20260510101055 | 68 | 62 | 6.0 | 13.0 | 0.00 | 0.00 | 0.00 | 85 | 1013.4 |
| 20260510100533 | 69 | 55 | 5.0 | 11.0 | 0.00 | 0.00 | 0.00 | 84 | 1013.4 |
| 20260510100035 | 70 | 82 | 4.0 | 10.0 | 0.00 | 0.00 | 0.00 | 83 | 1013.3 |
| 20260510095555 | 70 | 48 | 7.0 | 16.0 | 0.00 | 0.00 | 0.00 | 82 | 1013.3 |
| 20260510095035 | 71 | 78 | 5.0 | 11.0 | 0.00 | 0.00 | 0.00 | 82 | 1013.1 |
| 20260510094534 | 71 | 38 | 4.0 | 13.0 | 0.00 | 0.00 | 0.00 | 82 | 1012.9 |
| 20260510094116 | 72 | 59 | 5.0 | 8.0 | 0.00 | 0.00 | 0.00 | 81 | 1013.0 |
| 20260510093556 | 72 | 47 | 7.0 | 13.0 | 0.00 | 0.00 | 0.00 | 82 | 1012.9 |
| 20260510093053 | 72 | 78 | 4.0 | 7.0 | 0.00 | 0.00 | 0.00 | 83 | 1012.9 |
| 20260510092548 | 72 | 67 | 3.0 | 7.0 | 0.00 | 0.00 | 0.00 | 85 | 1012.6 |
| 20260510092116 | 73 | 68 | 3.0 | 7.0 | 0.00 | 0.00 | 0.00 | 86 | 1012.5 |
| 20260510091555 | 73 | 76 | 4.0 | 10.0 | 0.00 | 0.00 | 0.00 | 87 | 1012.4 |
| 20260510091214 | 73 | 70 | 4.0 | 8.0 | 0.00 | 0.00 | 0.00 | 87 | 1012.2 |
| 20260510090604 | 72 | 58 | 4.0 | 10.0 | 0.00 | 0.00 | 0.00 | 87 | 1012.3 |
| 20260510090116 | 72 | 59 | 3.0 | 7.0 | 0.00 | 0.00 | 0.00 | 87 | 1012.1 |
| 20260510085613 | 72 | 90 | 1.0 | 2.0 | 0.00 | 0.00 | 0.00 | 87 | 1012.3 |
| 20260510085053 | 72 | 140 | 2.0 | 3.0 | 0.00 | 0.00 | 0.00 | 87 | 1012.2 |
| 20260510084553 | 72 | 99 | 2.0 | 5.0 | 0.00 | 0.00 | 0.00 | 86 | 1012.3 |
| 20260510084117 | 72 | 31 | 2.0 | 5.0 | 0.00 | 0.00 | 0.00 | 85 | 1012.3 |
| 20260510083601 | 73 | 33 | 5.0 | 10.0 | 0.00 | 0.00 | 0.00 | 85 | 1012.5 |
| 20260510082549 | 73 | 76 | 3.0 | 6.0 | 0.00 | 0.00 | 0.00 | 84 | 1012.4 |
| 20260510082133 | 73 | 58 | 3.0 | 5.0 | 0.00 | 0.00 | 0.00 | 83 | 1012.5 |
| 20260510081526 | 73 | 30 | 2.0 | 5.0 | 0.00 | 0.00 | 0.00 | 82 | 1012.5 |
| 20260510081113 | 73 | 48 | 3.0 | 9.0 | 0.00 | 0.00 | 0.00 | 82 | 1012.6 |
| 20260510080533 | 73 | 27 | 4.0 | 9.0 | 0.00 | 0.00 | 0.00 | 81 | 1012.8 |
| 20260510080117 | 73 | 43 | 3.0 | 5.0 | 0.00 | 0.00 | 0.00 | 82 | 1012.7 |
| 20260510075557 | 74 | 55 | 3.0 | 6.0 | 0.00 | 0.00 | 0.00 | 80 | 1012.4 |
| 20260510075037 | 74 | 49 | 2.0 | 5.0 | 0.00 | 0.00 | 0.00 | 80 | 1012.0 |
| 20260510074605 | 73 | 69 | 2.0 | 3.0 | 0.00 | 0.00 | 0.00 | 80 | 1011.9 |
| 20260510074045 | 73 | 62 | 1.0 | 2.0 | 0.00 | 0.00 | 0.00 | 81 | 1011.6 |
| 20260510073525 | 73 | 79 | 0.0 | 1.0 | 0.00 | 0.00 | 0.00 | 81 | 1011.3 |
| 20260510073129 | 73 | 74 | 1.0 | 2.0 | 0.00 | 0.00 | 0.00 | 81 | 1011.1 |
| 20260510072548 | 73 | 89 | 0.0 | 1.0 | 0.00 | 0.00 | 0.00 | 81 | 1010.9 |
| 20260510072030 | 73 | 92 | 0.0 | 1.0 | 0.00 | 0.00 | 0.00 | 81 | 1010.6 |
| 20260510071612 | 73 | 85 | 0.0 | 1.0 | 0.00 | 0.00 | 0.00 | 80 | 1010.7 |
| 20260510071053 | 74 | 0.0 | 0.0 | 0.00 | 0.00 | 0.00 | 79 | 1010.6 | |
| 20260510070534 | 74 | 101 | 0.0 | 1.0 | 0.00 | 0.00 | 0.00 | 79 | 1010.4 |
| 20260510070117 | 74 | 108 | 0.0 | 1.0 | 0.00 | 0.00 | 0.00 | 78 | 1010.4 |
| 20260510065617 | 75 | 110 | 1.0 | 1.0 | 0.00 | 0.00 | 0.00 | 77 | 1010.3 |
| 20260510065035 | 75 | 113 | 1.0 | 2.0 | 0.00 | 0.00 | 0.00 | 76 | 1010.5 |
| 20260510064621 | 76 | 102 | 0.0 | 1.0 | 0.00 | 0.00 | 0.00 | 75 | 1010.5 |
| 20260510064121 | 76 | 102 | 0.0 | 1.0 | 0.00 | 0.00 | 0.00 | 73 | 1010.7 |
| 20260510063525 | 77 | 98 | 2.0 | 6.0 | 0.00 | 0.00 | 0.00 | 72 | 1010.8 |
| 20260510063108 | 76 | 128 | 2.0 | 3.0 | 0.00 | 0.00 | 0.00 | 73 | 1010.9 |
| 20260510062605 | 76 | 103 | 1.0 | 3.0 | 0.00 | 0.00 | 0.00 | 74 | 1011.0 |
| 20260510062045 | 76 | 50 | 2.0 | 5.0 | 0.00 | 0.00 | 0.00 | 73 | 1011.1 |
| 20260510061542 | 75 | 72 | 4.0 | 9.0 | 0.00 | 0.00 | 0.00 | 74 | 1011.4 |
| 20260510061042 | 74 | 67 | 4.0 | 9.0 | 0.00 | 0.00 | 0.00 | 75 | 1011.9 |
| 20260510060548 | 74 | 55 | 2.0 | 7.0 | 0.00 | 0.00 | 0.00 | 77 | 1011.9 |
| 20260510060035 | 73 | 74 | 2.0 | 6.0 | 0.00 | 0.00 | 0.00 | 77 | 1011.7 |
| 20260510055534 | 73 | 44 | 3.0 | 7.0 | 0.00 | 0.00 | 0.00 | 78 | 1011.7 |
| 20260510055054 | 74 | 51 | 6.0 | 11.0 | 0.00 | 0.00 | 0.00 | 78 | 1011.9 |
| 20260510054621 | 73 | 23 | 4.0 | 7.0 | 0.00 | 0.00 | 0.00 | 78 | 1011.4 |
| 20260510054101 | 73 | 51 | 2.0 | 3.0 | 0.00 | 0.00 | 0.00 | 79 | 1010.7 |
| 20260510053534 | 72 | 61 | 0.0 | 1.0 | 0.00 | 0.00 | 0.00 | 79 | 1010.1 |
| 20260510053102 | 72 | 0.0 | 0.0 | 0.00 | 0.00 | 0.00 | 81 | 1009.9 | |
| 20260510052604 | 72 | 0.0 | 0.0 | 0.00 | 0.00 | 0.00 | 80 | 1009.6 | |
| 20260510052034 | 72 | 98 | 0.0 | 1.0 | 0.00 | 0.00 | 0.00 | 79 | 1009.7 |
| 20260510051535 | 72 | 98 | 0.0 | 1.0 | 0.00 | 0.00 | 0.00 | 79 | 1009.6 |
| 20260510051054 | 72 | 0.0 | 0.0 | 0.00 | 0.00 | 0.00 | 79 | 1009.7 | |
| 20260510050533 | 72 | 0.0 | 0.0 | 0.00 | 0.00 | 0.00 | 78 | 1009.4 | |
| 20260510050059 | 73 | 113 | 0.0 | 1.0 | 0.00 | 0.00 | 0.00 | 77 | 1009.2 |
| 20260510045534 | 73 | 115 | 0.0 | 1.0 | 0.00 | 0.00 | 0.00 | 76 | 1009.2 |
| 20260510045034 | 73 | 109 | 0.0 | 1.0 | 0.00 | 0.00 | 0.00 | 76 | 1009.1 |
| 20260510044555 | 73 | 116 | 0.0 | 2.0 | 0.00 | 0.00 | 0.00 | 77 | 1009.1 |
| 20260510044117 | 73 | 0.0 | 0.0 | 0.00 | 0.00 | 0.00 | 77 | 1008.9 | |
| 20260510043617 | 74 | 116 | 0.0 | 1.0 | 0.00 | 0.00 | 0.00 | 75 | 1008.8 |
| 20260510043035 | 74 | 122 | 0.0 | 1.0 | 0.00 | 0.00 | 0.00 | 75 | 1008.9 |
| 20260510042534 | 74 | 114 | 0.0 | 1.0 | 0.00 | 0.00 | 0.00 | 74 | 1008.8 |
| 20260510042034 | 75 | 123 | 1.0 | 2.0 | 0.00 | 0.00 | 0.00 | 73 | 1008.7 |
| 20260510041535 | 75 | 125 | 1.0 | 2.0 | 0.00 | 0.00 | 0.00 | 73 | 1008.9 |
| 20260510041022 | 75 | 114 | 1.0 | 2.0 | 0.00 | 0.00 | 0.00 | 73 | 1009.0 |
| 20260510040605 | 75 | 118 | 0.0 | 1.0 | 0.00 | 0.00 | 0.00 | 73 | 1009.0 |
| 20260510040045 | 75 | 121 | 1.0 | 1.0 | 0.00 | 0.00 | 0.00 | 72 | 1009.2 |
| 20260510035534 | 75 | 93 | 1.0 | 2.0 | 0.00 | 0.00 | 0.00 | 71 | 1009.2 |
| 20260510035034 | 75 | 129 | 1.0 | 2.0 | 0.00 | 0.00 | 0.00 | 72 | 1009.3 |
| 20260510034534 | 75 | 116 | 1.0 | 1.0 | 0.00 | 0.00 | 0.00 | 73 | 1009.3 |
| 20260510034030 | 74 | 125 | 0.0 | 1.0 | 0.00 | 0.00 | 0.00 | 74 | 1009.2 |
| 20260510033613 | 74 | 107 | 0.0 | 1.0 | 0.00 | 0.00 | 0.00 | 74 | 1009.2 |
| 20260510033053 | 74 | 115 | 1.0 | 1.0 | 0.00 | 0.00 | 0.00 | 74 | 1009.3 |
| 20260510032533 | 75 | 103 | 0.0 | 1.0 | 0.00 | 0.00 | 0.00 | 74 | 1009.3 |
| 20260510032054 | 75 | 110 | 0.0 | 1.0 | 0.00 | 0.00 | 0.00 | 74 | 1009.4 |
| 20260510031021 | 74 | 93 | 0.0 | 1.0 | 0.00 | 0.00 | 0.00 | 75 | 1009.4 |
| 20260510030605 | 74 | 109 | 0.0 | 1.0 | 0.00 | 0.00 | 0.00 | 76 | 1009.3 |
| 20260510030045 | 75 | 102 | 0.0 | 1.0 | 0.00 | 0.00 | 0.00 | 76 | 1009.3 |
| 20260510025534 | 75 | 107 | 0.0 | 3.0 | 0.00 | 0.00 | 0.00 | 76 | 1009.5 |
| 20260510025034 | 75 | 91 | 0.0 | 1.0 | 0.00 | 0.00 | 0.00 | 76 | 1009.4 |
| 20260510024535 | 75 | 69 | 0.0 | 1.0 | 0.00 | 0.00 | 0.00 | 76 | 1009.4 |
| 20260510024050 | 75 | 78 | 0.0 | 1.0 | 0.00 | 0.00 | 0.00 | 74 | 1009.4 |
| 20260510023613 | 75 | 75 | 0.0 | 1.0 | 0.00 | 0.00 | 0.00 | 74 | 1009.3 |
| 20260510023053 | 75 | 79 | 1.0 | 1.0 | 0.00 | 0.00 | 0.00 | 72 | 1009.4 |
| 20260510022554 | 76 | 0.0 | 0.0 | 0.00 | 0.00 | 0.00 | 70 | 1009.2 | |
| 20260510022034 | 76 | 77 | 1.0 | 3.0 | 0.00 | 0.00 | 0.00 | 69 | 1009.0 |
| 20260510021534 | 76 | 75 | 0.0 | 1.0 | 0.00 | 0.00 | 0.00 | 68 | 1009.0 |
| 20260510021034 | 76 | 73 | 1.0 | 2.0 | 0.00 | 0.00 | 0.00 | 68 | 1009.0 |
| 20260510020554 | 75 | 65 | 1.0 | 1.0 | 0.00 | 0.00 | 0.00 | 70 | 1009.0 |
| 20260510020035 | 75 | 0.0 | 0.0 | 0.00 | 0.00 | 0.00 | 71 | 1008.9 | |
| 20260510015545 | 76 | 0.0 | 0.0 | 0.00 | 0.00 | 0.00 | 70 | 1008.9 | |
| 20260510015109 | 76 | 73 | 0.0 | 1.0 | 0.00 | 0.00 | 0.00 | 69 | 1008.9 |
| 20260510014550 | 76 | 74 | 0.0 | 1.0 | 0.00 | 0.00 | 0.00 | 71 | 1008.8 |
| 20260510014054 | 76 | 0.0 | 0.0 | 0.00 | 0.00 | 0.00 | 73 | 1008.7 | |
| 20260510013526 | 76 | 0.0 | 0.0 | 0.00 | 0.00 | 0.00 | 72 | 1008.5 | |
| 20260510013109 | 77 | 0.0 | 0.0 | 0.00 | 0.00 | 0.00 | 72 | 1008.5 | |
| 20260510012549 | 78 | 0.0 | 0.0 | 0.00 | 0.00 | 0.00 | 70 | 1008.4 | |
| 20260510012054 | 79 | 75 | 0.0 | 1.0 | 0.00 | 0.00 | 0.00 | 69 | 1008.5 |
| 20260510011535 | 79 | 76 | 0.0 | 1.0 | 0.00 | 0.00 | 0.00 | 67 | 1008.4 |
| 20260510011034 | 79 | 0.0 | 0.0 | 0.00 | 0.00 | 0.00 | 67 | 1008.5 | |
| 20260510010621 | 80 | 77 | 0.0 | 1.0 | 0.00 | 0.00 | 0.00 | 66 | 1008.4 |
| 20260510010121 | 80 | 0.0 | 0.0 | 0.00 | 0.00 | 0.00 | 66 | 1008.4 | |
| 20260510005541 | 80 | 0.0 | 0.0 | 0.00 | 0.00 | 0.00 | 65 | 1008.4 | |
| 20260510005034 | 81 | 0.0 | 0.0 | 0.00 | 0.00 | 0.00 | 65 | 1008.3 | |
| 20260510004535 | 81 | 84 | 0.0 | 1.0 | 0.00 | 0.00 | 0.00 | 64 | 1008.3 |
| 20260510004117 | 82 | 73 | 1.0 | 2.0 | 0.00 | 0.00 | 0.00 | 63 | 1008.2 |
| 20260510003557 | 82 | 84 | 0.0 | 1.0 | 0.00 | 0.00 | 0.00 | 63 | 1008.2 |
| 20260510003038 | 82 | 77 | 1.0 | 1.0 | 0.00 | 0.00 | 0.00 | 63 | 1008.3 |
| 20260510002518 | 82 | 92 | 0.0 | 1.0 | 0.00 | 0.00 | 0.00 | 64 | 1008.2 |
| 20260510002101 | 83 | 0.0 | 0.0 | 0.00 | 0.00 | 0.00 | 63 | 1008.2 | |
| 20260510001542 | 83 | 87 | 0.0 | 1.0 | 0.00 | 0.00 | 0.00 | 62 | 1008.2 |
| 20260510001042 | 83 | 114 | 0.0 | 1.0 | 0.00 | 0.00 | 0.00 | 62 | 1008.2 |
| 20260510000605 | 84 | 85 | 0.0 | 1.0 | 0.00 | 0.00 | 0.00 | 62 | 1008.2 |
| 20260510000046 | 84 | 95 | 0.0 | 1.0 | 0.00 | 0.00 | 0.00 | 62 | 1008.2 |
| 20260509235526 | 85 | 107 | 0.0 | 1.0 | 0.00 | 0.00 | 0.00 | 60 | 1008.3 |
| 20260509235109 | 86 | 73 | 1.0 | 3.0 | 0.00 | 0.00 | 0.00 | 58 | 1008.3 |
| 20260509234555 | 87 | 76 | 1.0 | 1.0 | 0.00 | 0.00 | 0.00 | 57 | 1008.4 |
| 20260509234117 | 88 | 0.0 | 0.0 | 0.00 | 0.00 | 0.00 | 57 | 1008.2 | |
| 20260509233557 | 88 | 85 | 0.0 | 1.0 | 0.00 | 0.00 | 0.00 | 56 | 1008.4 |
| 20260509233038 | 89 | 113 | 0.0 | 1.0 | 0.00 | 0.00 | 0.00 | 54 | 1008.5 |
| 20260509232549 | 89 | 0.0 | 0.0 | 0.00 | 0.00 | 0.00 | 52 | 1008.5 | |
| 20260509232030 | 89 | 121 | 0.0 | 1.0 | 0.00 | 0.00 | 0.00 | 51 | 1008.5 |
| 20260509231613 | 89 | 102 | 0.0 | 2.0 | 0.00 | 0.00 | 0.00 | 52 | 1008.5 |
| 20260509231053 | 89 | 112 | 0.0 | 1.0 | 0.00 | 0.00 | 0.00 | 53 | 1008.6 |
| 20260509230534 | 89 | 244 | 0.0 | 1.0 | 0.00 | 0.00 | 0.00 | 51 | 1008.5 |
| 20260509230117 | 89 | 101 | 0.0 | 1.0 | 0.00 | 0.00 | 0.00 | 52 | 1008.5 |
| 20260509225557 | 89 | 87 | 0.0 | 1.0 | 0.00 | 0.00 | 0.00 | 51 | 1008.6 |
| 20260509225038 | 89 | 112 | 0.0 | 1.0 | 0.00 | 0.00 | 0.00 | 51 | 1008.7 |
| 20260509224539 | 90 | 109 | 0.0 | 1.0 | 0.00 | 0.00 | 0.00 | 51 | 1008.6 |